sat.trackr.live / text

‹ back to catalog

STARLINK-32164

NORAD 60271 · 2024-131S

PAYLOAD ACTIVE UNKNOWN

§ Identity

Operator
Country
US
Launch date
2024-07-27
Launch site
AFETR
Launch vehicle
Mass (kg)
RCS (m²)

Purposes: comms

External: N2YO · Heavens-Above · Gunter

§ Orbital elements

Epoch: 2026-09-21T21:34:14.056320Z

Period
93.85 min
Inclination
53.1591°
Eccentricity
0.0001347
Mean motion
15.34386760 rev/d
Perigee alt
461.8 km
Apogee alt
463.7 km
Semi-major
6,840.9 km
B*
-6.1980e-8
RAAN
219.3197°
Arg perigee
88.0001°
Mean anomaly
272.1156°
Rev number
12,168

§ Raw data

STARLINK-321641 60271U 24131S   26264.89877380 -.00000378  00000+0 -61980-7 0  99972 60271  53.1591 219.3197 0001347  88.0001 272.1156 15.34386760121681

JSON: /api/v1/satellites/60271 · /tle

For live sub-satellite position, see the globe view (requires WebGL).

§ Visibility from observer

Set your observer location to see the next 7 days of passes ≥ 10°. The values pass through the URL so the page stays shareable.

No JS? Fill the form by hand. The geolocation button needs JavaScript.